www.pogodaiklimat.ru

Погода и климат >> Архив погоды >> Финляндия >> Лемланд Нихамн


ПОГОДА в Лемланд Нихамн

  • Прогноз погоды в Лемланд Нихамн
  • Монитор погоды в Лемланд Нихамн

АРХИВ ПОГОДЫ в Лемланд Нихамн

Время (UTC), дата Ветер
(напр.,м/с)
 
Видим.   Явления Облачность Т
(С)
Тd
(С)
f
(%)
Тe
(С)
Тes
(С)
Комфортность P
(гПа)
Po
(гПа)
Тmin
(С)
Tmax
(С)
R
(мм)
R24
(мм)
S
(см)
19 16.08 Ю 11 16 км 9/1 1500 м
[]
+17.5 +16.6 94 +16 +16 1010.9 1009.6
20 16.08 Ю 10-11
{12}
13 км 8/0
[]
+17.4 +16.7 96 +16 +16 1010.9 1009.7
21 16.08 Ю 8-10
{11}
10 км 6/4 100 м
[]
+17.3 +16.8 97 +16 +16 1010.9 1009.7
22 16.08 Ю 9 11 км 9/9 100 м
[]
+17.3 +16.8 97 +16 +16 1010.8 1009.6
23 16.08 Ю 9 14 км 1/1
[]
+17.2 +16.6 96 +16 +16 1010.9 1009.6
00 17.08 Ю 8-9
{9}
10 км {дымка} 6/6 100 м
[]
+17.0 +16.6 97 +16 +16 1010.7 1009.5
01 17.08 Ю 8 13 км 9/9 100 м
[]
+17.1 +16.6 97 +16 +16 1010.6 1009.4
02 17.08 Ю 8-9
{9}
13 км 1/0 100 м
[]
+17.0 +16.5 97 +16 +16 1010.3 1009.1
03 17.08 Ю 7-8
{10}
19 км 10/0 200 м
[]
+17.2 +16.4 95 +16 +16 1009.9 1008.7
04 17.08 Ю 7 23 км 10/10 200 м
[]
+17.3 +16.4 94 +16 +16 1009.9 1008.7
05 17.08 Ю 6 19 км 10/10 200 м
[]
+17.3 +16.7 96 +16 +16 1010.0 1008.8
06 17.08 ЮЗ 5-6
{7}
19 км 9/9 300 м
[]
+17.3 +16.7 96 +17 +17 1009.9 1008.7 +16.9 +17.6
07 17.08 ЮЗ 7-8
{8}
13 км 9/9 300 м
[]
+17.4 +16.9 97 +16 +17 1010.6 1009.3
08 17.08 ЮЗ 6 30 км 9/9 600 м
[]
+17.2 +15.5 90 +16 +17 1011.2 1010.0
09 17.08 Ю 7-8
{8}
28 км 5/0
[]
+17.9 +16.2 90 +17 +19 1011.3 1010.1
10 17.08 Ю 9 30 км 4/4 200 м
[]
+18.0 +16.4 90 +17 +18 1011.3 1010.1
11 17.08 Ю 10 30 км 9/9 2000 м
[]
+18.2 +15.8 86 +17 +17 1011.2 1010.0
12 17.08 Ю 10-11
{12}
30 км 1/1 1500 м
[]
+18.1 +15.6 85 +17 +18 1011.1 1009.9
13 17.08 Ю 8 30 км ясно +18.3 +16.3 88 +18 +19 1011.0 1009.7
14 17.08 Ю 10 35 км 3/3 100 м
[]
+17.9 +16.3 90 +17 +17 1010.6 1009.4
15 17.08 Ю 10-12
{13}
30 км ясно +18.0 +16.4 90 +17 +17 1010.4 1009.1
16 17.08 Ю 10 35 км ясно +18.0 +15.8 87 +17 +17 1010.3 1009.1
17 17.08 Ю 10-12
{12}
30 км ясно +17.7 +15.3 86 +16 +16 1010.4 1009.1
18 17.08 Ю 11-13
{13}
25 км 6/6
[]
+17.5 +16.4 93 +16 +16 1010.3 1009.0 +17.0 +18.6
19 17.08 Ю 12 26 км 9/9 1500 м
[]
+17.5 +16.4 93 +16 +16 1009.9 1008.7
20 17.08 Ю 11 21 км 9/6 200 м
[]
+17.5 +16.5 94 +16 +16 1009.8 1008.5
21 17.08 Ю 11-13
{13}
18 км 9/5 300 м
[]
+17.5 +16.6 94 +16 +16 1009.4 1008.2
22 17.08 Ю 11 11 км слаб. ливневой дождь 9/4 200 м
[]
+17.5 +16.6 94 +16 +16 1009.2 1007.9
23 17.08 Ю 12 15 км в посл. час дождь 10/10
[]
+17.5 +16.7 95 +16 +16 1009.1 1007.9
00 18.08 Ю 12-14
{15}
23 км {ливн. осадки, дождь} 10/10 2000 м
[]
+17.7 +15.9 89 +16 +16 1008.6 1007.4
01 18.08 Ю 12 13 км 10/10 1500 м
[]
+17.5 +16.5 94 +16 +16 1008.5 1007.3
02 18.08 Ю 13 14 км в посл. час дождь 10/10 100 м
[]
+16.6 +15.2 91 +14 +14 1008.2 1007.0
03 18.08 Ю 12-15
{16}
26 км {ливн. осадки, дождь} 10/0 600 м
[]
+17.5 +15.1 86 +16 +16 1007.7 1006.5
04 18.08 Ю 11 28 км в посл. час морось 10/10 600 м
[]
+17.6 +15.5 87 +16 +16 1007.7 1006.4
05 18.08 Ю 11 20 км слаб. дождь 10/10 600 м
[]
+17.6 +15.5 87 +16 +16 1007.5 1006.3
06 18.08 Ю 12-15
{15}
14 км слаб. ливневой дождь 9/9 200 м
[]
+16.9 +15.8 93 +15 +15 1007.5 1006.3 +16.3 +17.7
07 18.08 Ю 12 17 км в посл. час дождь 10/10 1000 м
[]
+16.6 +15.7 94 +15 +15 1007.3 1006.1
08 18.08 Ю 12-14
{14}
23 км 10/10 600 м
[]
+17.2 +15.5 90 +15 +15 1007.2 1006.0
09 18.08 Ю 12-13
{14}
30 км слаб. дождь 9/9 600 м
[]
+17.8 +15.7 88 +16 +16 1007.2 1006.0
10 18.08 Ю 11 20 км слаб. ливневой дождь 9/6 1000 м
[]
+17.9 +16.2 90 +17 +17 1007.3 1006.0
11 18.08 Ю 11 18 км 6/6 1000 м
[]
+17.4 +16.1 92 +16 +16 1007.2 1006.0
12 18.08 ЮВ 11-12
{13}
30 км {ливн. осадки, дождь} 3/3 1500 м
[]
+17.9 +15.7 87 +17 +17 1007.0 1005.8
13 18.08 ЮВ 11-12
{12}
23 км 6/3 1500 м
[]
+18.0 +16.5 91 +17 +17 1006.7 1005.4
14 18.08 ЮВ 11-12
{12}
22 км 6/1 1500 м
[]
+18.1 +16.7 92 +17 +17 1005.9 1004.7
15 18.08 ЮВ 10-12
{12}
21 км ясно +18.0 +16.5 91 +17 +17 1005.6 1004.4
16 18.08 Ю 11 24 км 9/9 1500 м
[]
+18.1 +16.1 88 +17 +17 1005.4 1004.2
17 18.08 Ю 11 20 км 9/1 1500 м
[]
+18.0 +16.5 91 +17 +17 1005.0 1003.8
18 18.08 Ю 11-12
{13}
14 км 9/9 2000 м
[]
+17.8 +16.9 94 +16 +16 1004.9 1003.7 +16.5 +18.2
19 18.08 Ю 9-10
{11}
10 км слаб. дождь 10/6 1500 м
[]
+17.6 +16.9 96 +16 +16 1004.9 1003.6
20 18.08 Ю 9 6000 м слаб. ливневой дождь 10/5 100 м
[]
+17.5 +17.0 97 +16 +16 1004.4 1003.2
21 18.08 Ю 10-12
{12}
4000 м сильн. дождь {ливн. осадки} 10/10 100 м
[]
+16.9 +16.6 98 +15 +15 1003.6 1002.4
22 18.08 Ю 11 9000 м слаб. дождь 10/10 1500 м
[]
+16.9 +16.0 94 +15 +15 1002.9 1001.7
23 18.08 Ю 12-14
{14}
6000 м дождь 10/0 100 м
[]
+16.6 +16.0 96 +15 +15 1002.2 1001.0
00 19.08 Ю 13-16
{16}
5000 м дождь 10/10 100 м
[]
+16.9 +16.3 96 +15 +15 1001.3 1000.1
01 19.08 Ю 11-12
{17}
12 км слаб. ливневой дождь 10/9 200 м
[]
+16.8 +16.2 96 +15 +15 1000.8 999.5
02 19.08 Ю 9 3700 м дождь 10/10 100 м
[]
+16.7 +16.4 98 +15 +15 1000.3 999.1
03 19.08 З 7-8
{9}
5000 м слаб. дождь 10/0 50 м
[]
+15.4 +15.2 99 +14 +14 1000.4 999.2
04 19.08 З 8 35 км в посл. час дождь 10/10 100 м
[]
+15.5 +14.2 92 +14 +14 1001.0 999.8
05 19.08 З 8 29 км 10/10 200 м
[]
+15.5 +14.0 91 +14 +14 1002.0 1000.7
06 19.08 З 9-10
{11}
27 км {ливн. осадки, дождь} 6/6 200 м
[]
+15.3 +14.0 92 +13 +13 1003.2 1001.9 +15.1 +17.8
07 19.08 ЮЗ 8 27 км 3/3 200 м
[]
+15.5 +13.9 90 +14 +14 1003.5 1002.3
08 19.08 ЮЗ 9-10
{10}
30 км 5/5 300 м
[]
+16.1 +14.1 88 +14 +15 1004.4 1003.2
09 19.08 ЮЗ 11-13
{13}
29 км ясно +16.6 +14.0 85 +15 +15 1005.0 1003.8
10 19.08 ЮЗ 9-11
{12}
35 км ясно +17.0 +14.4 85 +16 +17 1005.6 1004.4
11 19.08 ЮЗ 9 30 км ясно +17.5 +13.8 79 +16 +17 1006.5 1005.3
12 19.08 ЮЗ 9-10
{12}
35 км ясно +17.8 +14.2 79 +17 +18 1007.4 1006.2
13 19.08 ЮЗ 10 30 км ясно +17.8 +13.9 78 +17 +17 1007.9 1006.7
14 19.08 ЮЗ 11 26 км ясно +17.4 +14.8 85 +16 +16 1008.4 1007.2
15 19.08 ЮЗ 11-13
{13}
22 км ясно +17.6 +14.9 84 +16 +16 1009.0 1007.7
16 19.08 ЮЗ 12 20 км ясно +17.6 +14.7 83 +16 +16 1009.3 1008.1
17 19.08 ЮЗ 11 21 км ясно +17.6 +14.7 83 +16 +16 1009.5 1008.3
18 19.08 ЮЗ 12-14
{14}
19 км ясно +17.6 +14.6 83 +16 +16 1010.0 1008.8 +15.1 +18.0
19 19.08 ЮЗ 12 17 км ясно +17.5 +15.1 86 +16 +16 1010.3 1009.1
20 19.08 ЮЗ 10-13
{13}
16 км 8/0
[]
+17.5 +15.6 89 +16 +16 1010.6 1009.4
21 19.08 ЮЗ 9-10
{12}
16 км ясно +17.3 +15.7 90 +16 +16 1010.9 1009.7
22 19.08 ЮЗ 9 18 км ясно +17.3 +15.6 90 +16 +16 1011.1 1009.9
23 19.08 ЮЗ 8 22 км ясно +17.1 +15.7 91 +16 +16 1011.1 1009.9
00 20.08 ЮЗ 7-8
{9}
25 км ясно +16.9 +15.5 91 +16 +16 1011.5 1010.3
01 20.08 ЮЗ 7-8
{8}
30 км ясно +17.0 +15.2 89 +16 +16 1011.9 1010.7
02 20.08 ЮЗ 7 35 км ясно +17.0 +14.0 82 +16 +16 1012.6 1011.3
03 20.08 З 7-9
{10}
40 км ясно +16.5 +13.5 82 +15 +15 1013.1 1011.8
04 20.08 З 8 35 км ясно +16.3 +13.3 82 +15 +15 1013.6 1012.4
05 20.08 ЮЗ 9-10
{10}
29 км ясно +16.2 +13.1 82 +14 +15 1014.0 1012.8
06 20.08 ЮЗ 9-11
{11}
26 км ясно +16.5 +13.3 81 +15 +15 1014.6 1013.3 +16.2 +17.6
07 20.08 ЮЗ 10 21 км ясно +16.5 +13.8 84 +15 +15 1014.7 1013.5
08 20.08 ЮЗ 10 19 км ясно +16.7 +14.1 85 +15 +15 1015.0 1013.8
09 20.08 ЮЗ 10-11
{11}
20 км ясно +17.0 +15.1 89 +15 +16 1015.7 1014.4
10 20.08 ЮЗ 11-12
{12}
18 км 1/0 300 м
[]
+17.0 +14.8 87 +15 +15 1015.9 1014.6
11 20.08 Ю 11 18 км ясно +17.4 +15.0 86 +16 +16 1016.1 1014.9
12 20.08 Ю 12-14
{14}
20 км ясно +17.5 +14.3 81 +16 +16 1016.4 1015.2
13 20.08 ЮЗ 13-14
{15}
17 км ясно +17.3 +14.5 84 +15 +15 1016.4 1015.1
14 20.08 ЮЗ 12 21 км ясно +17.3 +14.4 83 +16 +16 1016.6 1015.4
15 20.08 ЮЗ 12-13
{14}
16 км ясно +17.2 +14.9 86 +15 +15 1016.7 1015.5
16 20.08 ЮЗ 11 17 км ясно +17.4 +15.0 86 +16 +16 1016.7 1015.5
17 20.08 ЮЗ 12 16 км ясно +17.2 +15.2 88 +15 +15 1017.0 1015.8
18 20.08 ЮЗ 12-13
{14}
14 км ясно +17.3 +15.2 87 +16 +16 1017.2 1016.0 +16.4 +17.6
19 20.08 ЮЗ 11 16 км 1/0
[]
+17.3 +15.2 87 +16 +16 1017.6 1016.3
20 20.08 ЮЗ 10 18 км 1/1
[]
+17.3 +15.1 87 +16 +16 1018.0 1016.7
21 20.08 ЮЗ 8-9
{11}
23 км ясно +17.1 +15.1 88 +16 +16 1017.9 1016.7
22 20.08 ЮЗ 6 27 км ясно +16.9 +15.0 89 +16 +16 1018.0 1016.8
23 20.08 ЮЗ 6 27 км ясно +16.9 +14.9 88 +16 +16 1018.4 1017.2
00 21.08 ЮЗ 5-5
{7}
27 км ясно +16.7 +15.3 91 +16 +16 1018.9 1017.7
01 21.08 ЮЗ 5 26 км ясно +16.6 +15.1 91 +16 +16 1019.1 1017.8
02 21.08 ЮЗ 5-5
{6}
35 км ясно +16.5 +14.0 85 +16 +16 1019.5 1018.3
03 21.08 ЮЗ 5-6
{6}
40 км 1/0 2000 м
[]
+16.3 +12.5 78 +15 +15 1019.9 1018.7
04 21.08 З 5-6
{6}
45 км 1/1 2000 м
[]
+16.1 +12.4 79 +15 +15 1019.9 1018.7
05 21.08 З 6 40 км ясно +15.9 +12.7 81 +15 +15 1020.2 1019.0
06 21.08 З 6-7
{7}
30 км ясно +16.1 +12.9 81 +15 +16 1020.4 1019.2 +15.8 +17.4
07 21.08 З 6 45 км ясно +16.0 +13.0 82 +15 +16 1020.5 1019.3
08 21.08 ЮЗ 5 35 км ясно +16.4 +13.0 80 +15 +19 1020.6 1019.4
09 21.08 ЮЗ 6-6
{7}
30 км ясно +17.0 +13.1 78 +16 +19 1020.8 1019.5
10 21.08 ЮЗ 7 30 км ясно +17.2 +13.5 79 +16 +19 1020.6 1019.4
11 21.08 ЮЗ 8 30 км ясно +17.3 +13.0 76 +16 +18 1020.5 1019.2
12 21.08 Ю 9-10
{10}
30 км ясно +17.5 +13.9 79 +16 +17 1020.2 1019.0
13 21.08 ЮЗ 9 30 км ясно +17.3 +14.1 81 +16 +17 1019.8 1018.6
14 21.08 ЮЗ 9 35 км ясно +17.4 +13.4 77 +16 +17 1019.8 1018.5
15 21.08 ЮЗ 10-12
{12}
28 км 1/0 1500 м
[]
+17.4 +13.8 79 +16 +16 1019.7 1018.5
16 21.08 ЮЗ 9 30 км 9/9
[]
+17.1 +14.3 84 +16 +16 1019.6 1018.3
17 21.08 ЮЗ 9 35 км 3/3
[]
+17.2 +14.1 82 +16 +16 1019.6 1018.4
18 21.08 ЮЗ 9-10
{11}
35 км {ливн. осадки, дождь} 10/10 2000 м
[]
+17.2 +14.5 84 +16 +16 1019.9 1018.7 +16.0 +17.6
19 21.08 ЮЗ 8 35 км 4/4
[]
+17.1 +14.7 86 +16 +16 1020.1 1018.8
20 21.08 З 3-3
{8}
35 км слаб. ливневой дождь 3/3 1000 м
[]
+16.9 +12.4 75 +17 +17 1020.5 1019.2
21 21.08 ЮЗ 7-8
{8}
40 км {ливн. осадки, дождь} 1/0 2000 м
[]
+17.1 +14.1 83 +16 +16 1020.6 1019.3
22 21.08 ЮЗ 7 45 км 9/9 2000 м
[]
+17.0 +13.9 82 +16 +16 1020.6 1019.3
23 21.08 З 7-8
{9}
50 км 1/0 2000 м
[]
+16.8 +12.8 77 +16 +16 1020.6 1019.4
00 22.08 З 8-9
{9}
45 км {ливн. осадки, дождь} ясно +16.3 +13.2 82 +15 +15 1021.0 1019.7
01 22.08 З 8-9
{9}
50 км ясно +16.2 +13.0 81 +15 +15 1021.1 1019.9
02 22.08 З 6 45 км ясно +15.7 +12.6 82 +14 +14 1021.4 1020.2
03 22.08 З 8-9
{9}
40 км ясно +15.4 +12.7 84 +13 +13 1021.7 1020.5
04 22.08 З 6-7
{9}
30 км ясно +15.3 +12.8 85 +14 +14 1022.0 1020.8
05 22.08 СЗ 6-7
{7}
29 км ясно +15.2 +12.9 86 +14 +14 1022.4 1021.2
06 22.08 З 5-6
{6}
35 км ясно +15.2 +12.9 86 +14 +15 1022.9 1021.6 +15.1 +17.3
07 22.08 З 5 30 км ясно +15.1 +13.0 87 +14 +16 1023.2 1021.9
08 22.08 З 4 35 км ясно +15.2 +12.4 83 +14 +18 1023.5 1022.2
09 22.08 З 4-5
{6}
35 км ясно +15.6 +12.3 81 +15 +20 1023.9 1022.6
10 22.08 ЮЗ 6-8
{8}
35 км ясно +16.1 +12.3 78 +15 +18 1023.9 1022.6
11 22.08 ЮЗ 7 30 км ясно +17.0 +12.8 76 +16 +18 1023.9 1022.6
12 22.08 ЮЗ 9-10
{10}
30 км ясно +17.6 +13.3 76 +16 +17 1023.8 1022.5
13 22.08 ЮЗ 10 26 км ясно +17.7 +12.5 72 +16 +17 1023.4 1022.2
14 22.08 ЮЗ 10-12
{12}
24 км ясно +17.1 +13.9 81 +16 +16 1023.5 1022.2
15 22.08 ЮЗ 10-12
{13}
24 км ясно +17.1 +14.6 85 +16 +16 1023.0 1021.8
16 22.08 ЮЗ 11 23 км ясно +17.1 +14.2 83 +15 +15 1022.9 1021.7
17 22.08 ЮЗ 11 26 км 1/1
[]
+17.1 +14.6 85 +15 +15 1022.6 1021.4
18 22.08 ЮЗ 10-12
{12}
25 км ясно +17.1 +14.7 86 +16 +16 1022.4 1021.2 +15.0 +17.8
19 22.08 ЮЗ 11-11
{13}
20 км 5/0
[]
+17.1 +15.0 87 +15 +15 1022.4 1021.2
20 22.08 ЮЗ 9 26 км 9/9 1500 м
[]
+17.1 +15.1 88 +16 +16 1022.7 1021.5
21 22.08 ЮЗ 5-6
{12}
30 км слаб. ливневой дождь 10/10 1500 м
[]
+16.7 +13.2 80 +16 +16 1022.8 1021.5
22 22.08 З 4 23 км слаб. дождь 10/1 300 м
[]
+15.1 +12.3 83 +14 +14 1022.7 1021.5
23 22.08 ЮЗ 2 16 км слаб. дождь 10/10 1500 м
[]
+15.4 +13.3 87 +15 +15 1022.5 1021.3
00 23.08 Ю 6-6
{8}
22 км морось {ливн. осадки, дождь} 9/9 1000 м
[]
+15.4 +13.4 88 +14 +14 1021.3 1020.1
01 23.08 Ю 7 30 км в посл. час дождь 9/4 1000 м
[]
+15.8 +14.3 91 +14 +14 1020.8 1019.5
02 23.08 ЮЗ 10 40 км 10/10 2000 м
[]
+17.1 +13.7 80 +16 +16 1020.1 1018.9
03 23.08 ЮЗ 9-11
{11}
29 км {ливн. осадки, морось} 5/1 1000 м
[]
+16.9 +14.3 85 +15 +15 1019.8 1018.6
04 23.08 ЮЗ 11 30 км ясно +16.9 +13.4 80 +15 +15 1019.8 1018.6
05 23.08 ЮЗ 11 28 км 1/1 600 м
[]
+16.4 +13.0 80 +14 +14 1019.7 1018.5
06 23.08 ЮЗ 10-12
{13}
20 км {ливн. осадки, морось} ясно +16.3 +13.4 83 +14 +15 1019.6 1018.4 +14.4 +17.2
07 23.08 ЮЗ 10 28 км ясно +16.5 +13.6 83 +15 +15 1019.3 1018.1
08 23.08 ЮЗ 10 27 км ясно +16.8 +13.9 83 +15 +15 1019.2 1017.9
09 23.08 ЮЗ 10-12
{12}
23 км 5/5 2000 м
[]
+17.0 +14.5 85 +15 +16 1019.2 1018.0
10 23.08 ЮЗ 10-14
{14}
8000 м слаб. дождь 6/6 1000 м
[]
+16.8 +14.1 84 +15 +15 1018.9 1017.7
11 23.08 ЮЗ 13 9000 м морось 10/10 1000 м
[]
+16.1 +14.4 90 +14 +14 1018.1 1016.9
12 23.08 ЮЗ 13-15
{15}
15 км в посл. час морось {дождь} 9/9 300 м
[]
+15.9 +14.4 91 +13 +13 1017.6 1016.3
13 23.08 ЮЗ 13 13 км слаб. ливневой дождь 10/10 300 м
[]
+16.0 +14.9 93 +14 +14 1017.2 1015.9
14 23.08 ЮЗ 12 13 км слаб. дождь 10/10 200 м
[]
+16.3 +15.2 93 +14 +14 1016.8 1015.5
15 23.08 ЮЗ 12-14
{15}
12 км {ливн. осадки, дождь} 9/9 300 м
[]
+16.5 +15.4 93 +14 +14 1016.5 1015.3
16 23.08 ЮЗ 11 13 км в посл. час морось 9/1 600 м
[]
+16.5 +15.6 94 +15 +15 1016.2 1014.9
17 23.08 ЮЗ 11-12
{13}
17 км в посл. час дождь 9/9 2000 м
[]
+16.6 +15.9 96 +15 +15 1016.2 1014.9

 

Местоположение метеостанции Лемланд Нихамн (Финляндия): широта 59.96 долгота 19.95 высота над уровнем моря 8 м.

В архиве по умолчанию представлена погода в Лемланд Нихамн за последнюю неделю. Архивные данные за месяц целиком и за предыдущие месяцы, начиная с января 2011 года, Вы можете получить, выбрав интересующий диапазон дат из раскрывающегося списка и нажав кнопку "Ввод!".


*Определитесь, кто Вы:
робот инопланетянин человек

Внимание! Время в таблицах - всемирное. Для получения местного времени необходимо прибавить поправку, которая равна 1 ч.

Смотрите также архив погоды в соседних городах и на ближайших метеорологических станциях:

Погода в Йомала аэропорту (Финляндия) (18 км)
Погода в Йомале (Финляндия) (25 км)
Погода в Логнес Харбор (Финляндия) (26 км)
Погода в Содерарме (Швеция) (38 км)
Погода в Кокар Богскар (Финляндия) (55 км)
Погода в Кумлинге (Финляндия) (55 км)
Погода на Хаммарланде (Финляндия) (59 км)
Погода в Свенска Хогарна (Швеция) (62 км)
Погода в Свенска Хогарна АМС (Швеция) (64 км)
Погода в Сванберге (Швеция) (75 км)

Пояснения к столбцам:

Ветер - указаны скорость ветра в м/с - средняя за 10 мин, порывы в срок и между сроками (в фигурных скобках) и направление, откуда дует ветер: С - северный, СВ - северо-восточный, В - восточный, ЮВ - юго-восточный, Ю - южный, ЮЗ - юго-западный, З - западный, СЗ - северо-западный.
Видимость - горизонтальная дальность видимости в метрах или километрах. При видимости от 1 до 10 км при отсутствии осадков обычно наблюдается дымка, при ухудшении видимости до 1 км и менее - туман. В сухую погоду видимость может ухудшаться дымом, пылью или мглою.
Явления - указаны атмосферные явления, наблюдавшиеся в срок или в последний час перед сроком; фигурными скобками обозначены явления, наблюдавшиеся между сроками (за 1-3 часа до срока); квадратными скобками обозначены град или гололедные отложения с указанием их диаметра в мм.
Облачность - указаны через наклонную черту общая и нижняя облачность в баллах и высота нижней границы облаков в метрах; квадратными скобками обозначены формы облаков: Ci - перистые, Cs - перисто-слоистые, Cc - перисто-кучевые, Ac - высококучевые, As - высокослоистые, Sc - слоисто-кучевые, Ns - слоисто-дождевые, Cu - кучевые, Cb - кучево-дождевые. Подробнее классификацию облаков см. в Атласе облаков (PDF).
T - Температура воздуха - температура, измеренная на высоте 2 м над землей.
Td - Температура точки росы - температура, при понижении до которой содержащийся в воздухе водяной пар достигнет насыщения.
f - Относительная влажность воздуха - влажноcть воздуха, измеренная на высоте 2 м над землей.
Te - Эффективная температура - температура, которую ощущает одетый по сезону человек в тени. Характеристика душности погоды. При расчете учитывается влияние влажности воздуха и скорости ветра на теплоощущения человека.
Tes - Эффективная температура на солнце - температура, которую ощущает человек, с поправкой на солнечный нагрев. Характеристика знойности погоды. Зависит от высоты солнца над горизонтом, облачности и скорости ветра. Ночью, в пасмурную погоду, а также при ветре 12 м/с и более поправка равна нулю.
P - Атмосферное давление - приведенное к уровню моря атмосферное давление.
Po - Атмосферное давление - измеренное на уровне метеостанции атмосферное давление.
Tmin - Минимальная температура - минимум температуры воздуха на высоте 2 м над землей.
Tmax - Максимальная температура - максимум температуры воздуха на высоте 2 м над землей.
R - Количество осадков - Количество выпавших осадков за период времени, мм. При наведении курсора мыши на число - период времени, за который выпало указанное количество осадков.
R24 - Количество осадков - Количество выпавших осадков за 24 часа, мм.
S - Снежный покров - Высота снежного покрова, см. При наведении курсора мыши на число - состояние снежного покрова и степень покрытия местности в баллах.